| time (UTC) | temp F | wind direction | speed MPH | gust MPH | rain 1hr in | rain 24hr in | rain mn in | humidity % | barometer mb |
| 20260903063003 | 80 | 0 | 0.0 | 1.0 | 0.00 | 0.00 | 0.00 | 73 | 1010.9 |
| 20260903062003 | 80 | 0 | 0.0 | 3.0 | 0.00 | 0.00 | 0.00 | 72 | 1011.0 |
| 20260903061004 | 81 | 0 | 0.0 | 5.0 | 0.00 | 0.00 | 0.00 | 72 | 1011.1 |
| 20260903055004 | 81 | 0 | 2.0 | 3.0 | 0.00 | 0.00 | 0.00 | 70 | 1011.3 |
| 20260903054004 | 82 | 0 | 1.0 | 5.0 | 0.00 | 0.00 | 0.00 | 69 | 1011.1 |
| 20260903053004 | 82 | 0 | 1.0 | 6.0 | 0.00 | 0.00 | 0.00 | 69 | 1011.1 |
| 20260903052004 | 82 | 0 | 2.0 | 6.0 | 0.00 | 0.00 | 0.00 | 68 | 1011.1 |
| 20260903051004 | 83 | 0 | 1.0 | 5.0 | 0.00 | 0.00 | 0.00 | 67 | 1011.1 |
| 20260903050003 | 83 | 0 | 1.0 | 6.0 | 0.00 | 0.00 | 0.00 | 67 | 1011.1 |
| 20260903045004 | 83 | 0 | 2.0 | 6.0 | 0.00 | 0.00 | 0.00 | 66 | 1011.1 |
| 20260903043003 | 84 | 0 | 2.0 | 7.0 | 0.00 | 0.00 | 0.00 | 64 | 1011.0 |
| 20260903041003 | 85 | 0 | 2.0 | 5.0 | 0.00 | 0.00 | 0.00 | 64 | 1011.1 |
| 20260903040003 | 85 | 0 | 1.0 | 8.0 | 0.00 | 0.00 | 0.00 | 64 | 1011.1 |
| 20260903035003 | 85 | 0 | 3.0 | 8.0 | 0.00 | 0.00 | 0.00 | 63 | 1010.6 |
| 20260903034003 | 86 | 0 | 2.0 | 5.0 | 0.00 | 0.00 | 0.00 | 62 | 1010.6 |
| 20260903033003 | 86 | 0 | 1.0 | 8.0 | 0.00 | 0.00 | 0.00 | 61 | 1010.6 |
| 20260903032004 | 87 | 0 | 2.0 | 9.0 | 0.00 | 0.00 | 0.00 | 60 | 1010.6 |
| 20260903031003 | 87 | 116 | 2.0 | 8.0 | 0.00 | 0.00 | 0.00 | 59 | 1010.6 |
| 20260903030004 | 87 | 130 | 3.0 | 9.0 | 0.00 | 0.00 | 0.00 | 58 | 1010.6 |
| 20260903025004 | 88 | 85 | 3.0 | 12.0 | 0.00 | 0.00 | 0.00 | 57 | 1010.6 |
| 20260903024003 | 88 | 130 | 3.0 | 8.0 | 0.00 | 0.00 | 0.00 | 57 | 1010.3 |
| 20260903023004 | 89 | 109 | 3.0 | 9.0 | 0.00 | 0.00 | 0.00 | 56 | 1010.3 |
| 20260903022003 | 89 | 97 | 4.0 | 10.0 | 0.00 | 0.00 | 0.00 | 55 | 1009.5 |
| 20260903021003 | 89 | 64 | 4.0 | 7.0 | 0.00 | 0.00 | 0.00 | 53 | 1009.5 |
| 20260903020003 | 90 | 125 | 5.0 | 10.0 | 0.00 | 0.00 | 0.00 | 53 | 1009.5 |
| 20260903014004 | 91 | 122 | 3.0 | 10.0 | 0.00 | 0.00 | 0.00 | 52 | 1009.5 |
| 20260903013004 | 91 | 112 | 3.0 | 9.0 | 0.00 | 0.00 | 0.00 | 52 | 1009.5 |
| 20260903012003 | 92 | 134 | 2.0 | 7.0 | 0.00 | 0.00 | 0.00 | 51 | 1009.5 |
| 20260903011004 | 92 | 82 | 3.0 | 10.0 | 0.00 | 0.00 | 0.00 | 50 | 1009.2 |
| 20260903005004 | 94 | 108 | 2.0 | 12.0 | 0.00 | 0.00 | 0.00 | 43 | 1009.2 |
| 20260903004003 | 94 | 54 | 3.0 | 12.0 | 0.00 | 0.00 | 0.00 | 44 | 1009.2 |
| 20260903003004 | 94 | 101 | 4.0 | 12.0 | 0.00 | 0.00 | 0.00 | 44 | 1009.2 |
| 20260903002003 | 95 | 67 | 3.0 | 10.0 | 0.00 | 0.00 | 0.00 | 44 | 1009.1 |
| 20260903001004 | 96 | 98 | 3.0 | 12.0 | 0.00 | 0.00 | 0.00 | 43 | 1009.1 |
| 20260903000004 | 97 | 57 | 3.0 | 8.0 | 0.00 | 0.00 | 0.00 | 39 | 1008.8 |
| 20260902233003 | 98 | 110 | 3.0 | 10.0 | 0.00 | 0.00 | 0.00 | 38 | 1008.8 |
| 20260902232003 | 98 | 37 | 6.0 | 12.0 | 0.00 | 0.00 | 0.00 | 38 | 1008.8 |
| 20260902231004 | 98 | 109 | 3.0 | 8.0 | 0.00 | 0.00 | 0.00 | 37 | 1008.8 |
| 20260902230003 | 99 | 81 | 2.0 | 12.0 | 0.00 | 0.00 | 0.00 | 37 | 1008.8 |
| 20260902225004 | 99 | 88 | 3.0 | 7.0 | 0.00 | 0.00 | 0.00 | 36 | 1008.8 |
| 20260902224004 | 99 | 49 | 3.0 | 8.0 | 0.00 | 0.00 | 0.00 | 37 | 1009.0 |
| 20260902223003 | 99 | 9 | 4.0 | 14.0 | 0.00 | 0.00 | 0.00 | 37 | 1008.9 |
| 20260902221004 | 99 | 61 | 3.0 | 10.0 | 0.00 | 0.00 | 0.00 | 37 | 1009.9 |
| 20260902215004 | 99 | 32 | 7.0 | 12.0 | 0.00 | 0.00 | 0.00 | 37 | 1009.9 |
| 20260902214004 | 100 | 50 | 6.0 | 14.0 | 0.00 | 0.00 | 0.00 | 37 | 1009.9 |
| 20260902213003 | 100 | 26 | 6.0 | 12.0 | 0.00 | 0.00 | 0.00 | 37 | 1009.9 |
| 20260902212003 | 99 | 29 | 4.0 | 9.0 | 0.00 | 0.00 | 0.00 | 37 | 1009.9 |
| 20260902211004 | 100 | 26 | 5.0 | 9.0 | 0.00 | 0.00 | 0.00 | 36 | 1009.9 |
| 20260902210003 | 99 | 43 | 5.0 | 8.0 | 0.00 | 0.00 | 0.00 | 36 | 1009.9 |
| 20260902205003 | 99 | 49 | 2.0 | 13.0 | 0.00 | 0.00 | 0.00 | 37 | 1009.9 |
| 20260902204003 | 99 | 69 | 2.0 | 12.0 | 0.00 | 0.00 | 0.00 | 38 | 1010.0 |
| 20260902203003 | 99 | 347 | 5.0 | 18.0 | 0.00 | 0.00 | 0.00 | 38 | 1010.2 |
| 20260902202003 | 98 | 59 | 7.0 | 13.0 | 0.00 | 0.00 | 0.00 | 39 | 1010.2 |
| 20260902201003 | 98 | 96 | 2.0 | 13.0 | 0.00 | 0.00 | 0.00 | 40 | 1010.9 |
| 20260902195003 | 98 | 27 | 2.0 | 12.0 | 0.00 | 0.00 | 0.00 | 41 | 1010.9 |
| 20260902194004 | 97 | 16 | 8.0 | 13.0 | 0.00 | 0.00 | 0.00 | 40 | 1010.9 |
| 20260902193004 | 98 | 44 | 3.0 | 15.0 | 0.00 | 0.00 | 0.00 | 41 | 1011.1 |
| 20260902192004 | 98 | 11 | 9.0 | 18.0 | 0.00 | 0.00 | 0.00 | 40 | 1011.5 |
| 20260902190004 | 97 | 51 | 7.0 | 10.0 | 0.00 | 0.00 | 0.00 | 41 | 1011.5 |
| 20260902184003 | 97 | 20 | 9.0 | 15.0 | 0.00 | 0.00 | 0.00 | 44 | 1012.3 |
| 20260902183003 | 96 | 6 | 4.0 | 12.0 | 0.00 | 0.00 | 0.00 | 43 | 1012.3 |
| 20260902182004 | 96 | 133 | 3.0 | 8.0 | 0.00 | 0.00 | 0.00 | 44 | 1012.3 |
| 20260902181004 | 95 | 358 | 5.0 | 13.0 | 0.00 | 0.00 | 0.00 | 44 | 1012.5 |
| 20260902180006 | 95 | 126 | 2.0 | 7.0 | 0.00 | 0.00 | 0.00 | 44 | 1013.6 |
| 20260902175004 | 95 | 38 | 3.0 | 9.0 | 0.00 | 0.00 | 0.00 | 44 | 1013.6 |
| 20260902174003 | 95 | 57 | 1.0 | 8.0 | 0.00 | 0.00 | 0.00 | 47 | 1013.6 |
| 20260902173003 | 94 | 9 | 3.0 | 9.0 | 0.00 | 0.00 | 0.00 | 47 | 1013.6 |
| 20260902172011 | 94 | 55 | 2.0 | 8.0 | 0.00 | 0.00 | 0.00 | 48 | 1013.6 |
| 20260902171004 | 93 | 23 | 4.0 | 12.0 | 0.00 | 0.00 | 0.00 | 49 | 1013.6 |
| 20260902170003 | 93 | 342 | 3.0 | 9.0 | 0.00 | 0.00 | 0.00 | 48 | 1013.6 |
| 20260902164003 | 92 | 45 | 3.0 | 8.0 | 0.00 | 0.00 | 0.00 | 49 | 1013.9 |
| 20260902163003 | 92 | 16 | 3.0 | 8.0 | 0.00 | 0.00 | 0.00 | 49 | 1013.9 |
| 20260902162004 | 93 | 36 | 3.0 | 8.0 | 0.00 | 0.00 | 0.00 | 49 | 1013.9 |
| 20260902161004 | 92 | 129 | 2.0 | 6.0 | 0.00 | 0.00 | 0.00 | 50 | 1013.9 |
| 20260902160006 | 91 | 115 | 3.0 | 6.0 | 0.00 | 0.00 | 0.00 | 50 | 1013.9 |
| 20260902155003 | 91 | 44 | 1.0 | 6.0 | 0.00 | 0.00 | 0.00 | 53 | 1013.9 |
| 20260902154003 | 89 | 111 | 2.0 | 6.0 | 0.00 | 0.00 | 0.00 | 56 | 1013.9 |
| 20260902153004 | 89 | 26 | 2.0 | 6.0 | 0.00 | 0.00 | 0.00 | 57 | 1013.9 |
| 20260902152003 | 88 | 39 | 2.0 | 5.0 | 0.00 | 0.00 | 0.00 | 58 | 1013.9 |
| 20260902150003 | 87 | 35 | 2.0 | 6.0 | 0.00 | 0.00 | 0.00 | 62 | 1013.9 |
| 20260902145003 | 86 | 36 | 2.0 | 6.0 | 0.00 | 0.00 | 0.00 | 63 | 1013.9 |
| 20260902144003 | 85 | 40 | 3.0 | 7.0 | 0.00 | 0.00 | 0.00 | 64 | 1013.8 |
| 20260902143004 | 85 | 74 | 1.0 | 5.0 | 0.00 | 0.00 | 0.00 | 66 | 1013.9 |
| 20260902142003 | 83 | 234 | 2.0 | 6.0 | 0.00 | 0.00 | 0.00 | 69 | 1013.9 |
| 20260902141003 | 83 | 0 | 2.0 | 6.0 | 0.00 | 0.00 | 0.00 | 69 | 1013.8 |
| 20260902140003 | 82 | 0 | 2.0 | 6.0 | 0.00 | 0.00 | 0.00 | 68 | 1013.8 |
| 20260902135004 | 83 | 0 | 2.0 | 5.0 | 0.00 | 0.00 | 0.00 | 69 | 1013.8 |
| 20260902132003 | 81 | 0 | 1.0 | 5.0 | 0.00 | 0.00 | 0.00 | 73 | 1013.3 |
| 20260902131003 | 81 | 0 | 0.0 | 3.0 | 0.00 | 0.00 | 0.00 | 72 | 1013.3 |
| 20260902130003 | 80 | 0 | 2.0 | 3.0 | 0.00 | 0.00 | 0.00 | 74 | 1013.3 |
| 20260902125003 | 78 | 0 | 0.0 | 2.0 | 0.00 | 0.00 | 0.00 | 76 | 1013.3 |
| 20260902124004 | 78 | 0 | 0.0 | 2.0 | 0.00 | 0.00 | 0.00 | 77 | 1013.2 |
| 20260902123004 | 78 | 0 | 0.0 | 3.0 | 0.00 | 0.00 | 0.00 | 77 | 1013.2 |
| 20260902121003 | 78 | 0 | 0.0 | 3.0 | 0.00 | 0.00 | 0.00 | 76 | 1013.2 |
| 20260902120003 | 78 | 0 | 0.0 | 3.0 | 0.00 | 0.00 | 0.00 | 77 | 1013.2 |
| 20260902115004 | 78 | 0 | 0.0 | 1.0 | 0.00 | 0.00 | 0.00 | 77 | 1013.2 |
| 20260902114003 | 78 | 0 | 0.0 | 0.0 | 0.00 | 0.00 | 0.00 | 76 | 1013.2 |
| 20260902112003 | 79 | 0 | 0.0 | 0.0 | 0.00 | 0.00 | 0.00 | 74 | 1013.1 |
| 20260902111003 | 79 | 0 | 0.0 | 1.0 | 0.00 | 0.00 | 0.00 | 74 | 1013.1 |
| 20260902110005 | 79 | 0 | 0.0 | 0.0 | 0.00 | 0.00 | 0.00 | 73 | 1013.1 |
| 20260902105004 | 80 | 0 | 0.0 | 0.0 | 0.00 | 0.00 | 0.00 | 72 | 1013.1 |
| 20260902104003 | 80 | 0 | 0.0 | 2.0 | 0.00 | 0.00 | 0.00 | 72 | 1013.1 |
| 20260902103004 | 80 | 0 | 0.0 | 1.0 | 0.00 | 0.00 | 0.00 | 73 | 1013.1 |
| 20260902102003 | 80 | 0 | 0.0 | 1.0 | 0.00 | 0.00 | 0.00 | 71 | 1012.9 |
| 20260902101003 | 80 | 0 | 0.0 | 3.0 | 0.00 | 0.00 | 0.00 | 72 | 1013.0 |
| 20260902100003 | 79 | 0 | 0.0 | 0.0 | 0.00 | 0.00 | 0.00 | 74 | 1013.0 |
| 20260902095004 | 79 | 0 | 0.0 | 0.0 | 0.00 | 0.00 | 0.00 | 73 | 1013.0 |
| 20260902094004 | 79 | 0 | 0.0 | 0.0 | 0.00 | 0.00 | 0.00 | 73 | 1013.0 |
| 20260902093004 | 80 | 0 | 0.0 | 0.0 | 0.00 | 0.00 | 0.00 | 72 | 1013.0 |
| 20260902092003 | 80 | 0 | 0.0 | 0.0 | 0.00 | 0.00 | 0.00 | 71 | 1013.0 |
| 20260902091003 | 81 | 0 | 0.0 | 0.0 | 0.00 | 0.00 | 0.00 | 70 | 1013.0 |
| 20260902090004 | 81 | 0 | 0.0 | 1.0 | 0.00 | 0.00 | 0.00 | 69 | 1012.9 |
| 20260902085003 | 82 | 0 | 0.0 | 2.0 | 0.00 | 0.00 | 0.00 | 68 | 1013.0 |
| 20260902084003 | 82 | 0 | 0.0 | 2.0 | 0.00 | 0.00 | 0.00 | 68 | 1013.0 |
| 20260902083004 | 82 | 0 | 1.0 | 3.0 | 0.00 | 0.00 | 0.00 | 67 | 1013.0 |
| 20260902082003 | 82 | 0 | 1.0 | 3.0 | 0.00 | 0.00 | 0.00 | 67 | 1013.1 |
| 20260902081004 | 83 | 0 | 2.0 | 5.0 | 0.00 | 0.00 | 0.00 | 66 | 1013.1 |
| 20260902080003 | 83 | 0 | 1.0 | 3.0 | 0.00 | 0.00 | 0.00 | 65 | 1013.1 |
| 20260902075003 | 83 | 0 | 0.0 | 6.0 | 0.00 | 0.00 | 0.00 | 64 | 1013.1 |
| 20260902074004 | 84 | 0 | 2.0 | 8.0 | 0.00 | 0.00 | 0.00 | 64 | 1013.1 |
| 20260902073003 | 84 | 0 | 1.0 | 3.0 | 0.00 | 0.00 | 0.00 | 63 | 1013.1 |
| 20260902072003 | 85 | 0 | 0.0 | 3.0 | 0.00 | 0.00 | 0.00 | 62 | 1013.1 |
| 20260902071003 | 85 | 0 | 1.0 | 5.0 | 0.00 | 0.00 | 0.00 | 61 | 1013.1 |
| 20260902065004 | 85 | 0 | 2.0 | 6.0 | 0.00 | 0.00 | 0.00 | 62 | 1013.0 |
| 20260902064003 | 85 | 0 | 2.0 | 7.0 | 0.00 | 0.00 | 0.00 | 62 | 1013.0 |